Location: Sternwarte_Laufen
(47.9344°N, 12.9346°E)
Time: 13:01:09
(UTC+01:00)

ISS - Visible Passes

Search period start: 22 January 2018 00:00
Search period end: 01 February 2018 00:00
Orbit: 402 x 407 km, 51.6° (Epoch: 22 January)

Date Brightness Start Highest point End Pass type
(mag) Time Alt. Az. Time Alt. Az. Time Alt. Az.
25 Jan -0.6 19:46:09 10° SW 19:46:17 11° SW 19:46:17 11° SW visible
26 Jan -2.5 18:54:10 10° SSW 18:56:24 28° S 18:56:24 28° S visible
27 Jan -2.1 18:02:29 10° S 18:04:55 19° SE 18:06:26 15° ESE visible
27 Jan -1.4 19:37:47 10° WSW 19:39:05 22° WSW 19:39:05 22° WSW visible
28 Jan -3.8 18:45:28 10° SW 18:48:42 62° SSE 18:49:02 57° ESE visible
29 Jan -3.0 17:53:21 10° SW 17:56:24 37° SE 17:58:54 14° E visible
29 Jan -2.0 19:29:35 10° W 19:31:34 32° W 19:31:34 32° W visible
30 Jan -3.8 18:37:06 10° WSW 18:40:22 77° NNW 18:41:23 41° ENE visible
30 Jan -0.2 20:13:59 10° WNW 20:14:02 10° WNW 20:14:02 10° WNW visible
31 Jan -3.8 17:44:42 10° WSW 17:47:58 72° SSE 17:51:09 10° ENE visible
31 Jan -2.4 19:21:26 10° W 19:23:48 36° NW 19:23:48 36° NW visible
